Location: Im Fang
(46.6019°N, 7.2397°E)
Time: 08:08:57
(UTC+00:00)

Meteor 1-18 Rocket - Pass Details

Date: 08 December 2019
Orbit: 837 x 909 km, 81.2° (Epoch: 24 January)

Event Time Altitude Azimuth Distance (km) Brightness Sun altitude
Exits shadow 05:15:53 - 347° (NNW) 3,282 7.0 -17.4°
Reaches altitude 10° 05:17:59 10° 347° (NNW) 2,463 6.3 -17.1°
Maximum altitude 05:23:33 81° 262° (W) 854 4.1 -16.1°
Drops below altitude 10° 05:29:06 10° 175° (S) 2,451 6.9 -15.2°
Sets 05:31:30 0° 174° (S) 3,387 7.7 -14.8°
